Total_Precipitation_Accumulation
1.44 1.48 1.48 1.52 1.45 1.56 1.77 1.96 1.92 1.96 1.99 1.85 1.59 1.44 1.44 1.42 1.44 1.44 1.46 1.72 1.62 1.59 1.97 2.10 1.92 1.72 1.59 1.34 1.09 0.90 0.79 0.74 0.67 0.52 0.44 0.48 0.56 0.62 0.57 0.49 0.45 0.42 0.35
1.79 1.72 1.55 1.57 1.52 1.59 1.69 1.89 1.99 2.24 2.18 2.08 1.67 1.49 1.52 1.62 1.62 1.66 1.67 1.93 1.82 1.59 1.76 1.95 2.06 1.98 1.83 1.65 1.40 1.17 0.99 0.87 0.76 0.55 0.46 0.44 0.51 0.61 0.59 0.58 0.53 0.49 0.40
1.96 1.88 1.68 1.56 1.62 1.69 1.76 1.81 1.95 2.22 2.14 2.01 1.72 1.62 1.55 1.47 1.35 1.40 1.51 1.65 1.60 1.53 1.60 1.72 1.89 1.95 1.94 1.92 1.79 1.62 1.34 1.10 0.94 0.73 0.56 0.44 0.39 0.44 0.45 0.50 0.52 0.51 0.43
1.95 1.89 1.67 1.50 1.71 1.73 1.77 1.90 1.99 2.13 2.19 2.19 1.92 1.67 1.56 1.45 1.27 1.29 1.28 1.31 1.39 1.18 1.39 1.62 1.75 1.81 2.03 2.17 2.23 2.23 1.89 1.44 1.11 0.92 0.72 0.54 0.42 0.39 0.35 0.34 0.39 0.38 0.32
1.83 1.86 1.59 1.48 1.72 1.87 1.87 1.74 2.00 2.21 2.16 2.17 1.89 1.65 1.42 1.27 1.11 1.07 1.11 1.08 1.12 1.10 1.14 1.26 1.40 1.51 1.91 2.37 2.65 2.69 2.50 1.99 1.46 1.17 1.01 0.85 0.66 0.53 0.39 0.31 0.31 0.28 0.23
1.62 1.81 1.54 1.53 1.80 1.85 1.81 1.88 2.03 2.19 2.07 2.10 1.90 1.48 1.21 0.95 0.92 0.83 0.78 0.82 0.78 0.73 0.81 1.03 1.31 1.26 1.62 2.00 2.25 2.50 2.70 2.53 2.00 1.51 1.31 1.18 1.03 0.81 0.58 0.43 0.36 0.32 0.26
1.67 1.93 1.69 1.69 1.74 1.68 1.68 1.86 2.00 1.93 1.80 2.21 2.13 1.43 0.93 0.73 0.65 0.51 0.54 0.56 0.51 0.55 0.73 0.99 1.18 1.25 1.22 1.33 1.49 1.75 2.21 2.50 2.36 1.93 1.65 1.47 1.35 1.06 0.80 0.64 0.48 0.38 0.30
1.64 1.74 1.76 1.67 1.67 1.64 1.50 1.59 1.84 1.72 1.44 1.87 2.04 1.82 1.20 0.76 0.55 0.39 0.41 0.42 0.46 0.59 0.67 0.74 0.95 1.15 1.14 1.29 1.21 1.17 1.57 2.06 2.37 2.33 2.04 1.71 1.41 1.12 0.93 0.81 0.63 0.50 0.39
1.66 1.74 1.64 1.49 1.45 1.45 1.33 1.34 1.54 1.61 1.41 1.46 1.81 2.07 1.59 0.98 0.73 0.49 0.50 0.53 0.64 0.76 0.77 0.82 0.89 1.01 1.09 1.28 1.39 1.40 1.26 1.43 1.95 2.52 2.51 2.05 1.51 1.15 0.97 0.93 0.88 0.70 0.56
1.81 1.70 1.53 1.35 1.20 1.16 1.13 1.10 1.26 1.38 1.39 1.19 1.34 1.47 1.44 1.34 1.21 0.80 0.59 0.62 0.77 0.84 0.87 0.92 0.94 1.00 1.09 1.29 1.43 1.46 1.20 1.08 1.32 2.05 2.48 2.38 1.91 1.39 1.13 1.16 1.40 1.29 0.92
1.76 1.58 1.45 1.31 1.20 1.10 1.03 1.01 1.06 1.09 1.13 1.05 1.10 1.16 1.25 1.25 1.19 1.09 0.82 0.79 0.80 0.67 0.68 0.74 0.88 1.14 1.23 1.33 1.52 1.48 1.38 1.32 1.28 1.41 1.68 1.89 1.94 1.70 1.46 1.47 1.89 2.10 1.80
1.32 1.24 1.15 1.06 1.01 1.01 1.02 0.99 0.96 0.97 0.99 1.01 1.02 1.04 1.15 1.24 1.28 1.29 1.11 0.98 0.88 0.73 0.71 0.73 0.80 0.99 1.10 1.18 1.24 1.34 1.33 1.28 1.17 1.14 1.18 1.28 1.42 1.59 1.72 1.90 2.28 2.61 2.73
0.74 0.71 0.73 0.75 0.76 0.77 0.78 0.80 0.79 0.79 0.88 0.95 0.97 1.03 1.13 1.22 1.31 1.34 1.25 1.05 0.95 0.85 0.90 0.86 0.79 0.90 0.93 1.11 1.19 1.09 0.96 0.95 0.83 0.81 0.86 0.93 1.08 1.26 1.38 1.54 1.91 2.33 2.67
0.53 0.52 0.55 0.58 0.59 0.62 0.65 0.68 0.67 0.67 0.69 0.75 0.79 0.95 1.07 1.08 1.18 1.28 1.29 1.24 1.15 1.09 1.16 1.09 0.94 0.90 0.94 1.04 1.04 0.93 0.87 0.75 0.61 0.54 0.54 0.58 0.66 0.83 1.01 1.18 1.37 1.59 1.83
0.48 0.49 0.52 0.57 0.60 0.63 0.65 0.63 0.63 0.64 0.72 0.77 0.80 0.90 0.99 1.04 1.10 1.19 1.28 1.33 1.37 1.34 1.31 1.25 1.04 0.98 0.95 0.92 0.97 0.90 0.95 0.76 0.51 0.42 0.41 0.43 0.44 0.48 0.60 0.78 0.95 1.11 1.33
0.49 0.50 0.51 0.57 0.61 0.60 0.59 0.58 0.58 0.61 0.70 0.80 0.89 1.00 1.04 1.04 1.06 1.15 1.28 1.44 1.54 1.52 1.38 1.15 1.04 1.07 1.09 0.99 0.93 0.80 0.75 0.73 0.55 0.43 0.39 0.39 0.39 0.41 0.46 0.60 0.75 0.88 1.04
0.47 0.50 0.53 0.54 0.55 0.56 0.57 0.60 0.60 0.66 0.71 0.76 0.80 0.92 1.00 1.03 1.07 1.11 1.21 1.30 1.45 1.57 1.44 1.22 1.17 1.22 1.28 1.25 1.09 0.90 0.75 0.69 0.59 0.47 0.38 0.37 0.37 0.42 0.48 0.55 0.66 0.77 0.85
0.55 0.56 0.58 0.58 0.55 0.58 0.66 0.73 0.72 0.76 0.81 0.82 0.83 0.85 0.84 0.90 1.01 1.02 1.08 1.13 1.24 1.44 1.40 1.30 1.33 1.37 1.39 1.33 1.25 1.07 0.88 0.77 0.71 0.55 0.42 0.37 0.36 0.38 0.42 0.42 0.50 0.65 0.77
0.60 0.62 0.66 0.73 0.74 0.75 0.75 0.79 0.86 0.87 0.80 0.76 0.76 0.75 0.72 0.75 0.80 0.88 0.99 0.97 1.00 1.12 1.26 1.33 1.43 1.50 1.57 1.46 1.29 1.15 1.02 0.93 0.74 0.64 0.53 0.43 0.40 0.38 0.39 0.39 0.43 0.51 0.64
0.52 0.57 0.65 0.76 0.86 0.91 0.93 0.89 0.84 0.82 0.77 0.71 0.65 0.62 0.63 0.66 0.69 0.74 0.84 0.89 0.92 1.01 1.14 1.23 1.39 1.59 1.61 1.65 1.52 1.31 1.21 1.15 0.91 0.67 0.62 0.55 0.49 0.44 0.40 0.36 0.37 0.44 0.54
0.51 0.62 0.74 0.83 0.98 1.05 0.98 0.94 0.86 0.81 0.79 0.70 0.62 0.56 0.54 0.52 0.54 0.61 0.63 0.70 0.79 0.89 0.92 1.01 1.15 1.40 1.53 1.64 1.60 1.41 1.27 1.29 1.16 0.87 0.72 0.67 0.64 0.57 0.51 0.45 0.36 0.36 0.44
0.50 0.57 0.64 0.71 0.76 0.71 0.71 0.68 0.63 0.60 0.60 0.57 0.53 0.52 0.47 0.41 0.43 0.44 0.42 0.48 0.57 0.63 0.73 0.87 0.95 1.15 1.35 1.45 1.57 1.65 1.52 1.37 1.32 1.17 1.06 0.98 0.86 0.80 0.67 0.53 0.43 0.34 0.34
0.51 0.56 0.56 0.58 0.57 0.57 0.48 0.41 0.40 0.40 0.44 0.45 0.47 0.48 0.38 0.32 0.39 0.43 0.40 0.36 0.38 0.41 0.49 0.67 0.80 0.89 1.12 1.33 1.52 1.68 1.68 1.61 1.51 1.44 1.35 1.32 1.11 0.95 0.81 0.68 0.59 0.45 0.37
0.56 0.57 0.56 0.55 0.58 0.54 0.43 0.34 0.31 0.31 0.35 0.36 0.41 0.46 0.46 0.42 0.43 0.46 0.47 0.41 0.36 0.35 0.37 0.44 0.53 0.69 0.95 1.32 1.54 1.60 1.73 1.77 1.73 1.66 1.58 1.56 1.40 1.21 1.05 0.92 0.82 0.62 0.50
0.76 0.70 0.65 0.63 0.64 0.62 0.50 0.36 0.33 0.34 0.39 0.39 0.41 0.46 0.51 0.50 0.48 0.40 0.42 0.42 0.40 0.40 0.35 0.38 0.43 0.55 0.72 1.00 1.40 1.54 1.58 1.52 1.48 1.33 1.21 1.24 1.29 1.29 1.26 1.16 1.01 0.87 0.71
1.01 0.93 0.83 0.81 0.80 0.80 0.71 0.48 0.42 0.43 0.48 0.54 0.64 0.64 0.57 0.51 0.47 0.40 0.42 0.48 0.43 0.40 0.43 0.44 0.45 0.45 0.50 0.66 0.96 1.21 1.26 1.23 1.13 1.13 0.93 0.88 0.91 0.98 1.10 1.06 0.97 0.90 0.84